Regional Weather Roundup
Issued by NWS

Home | Current Version | Previous Version | Graphics & Text | Print | Product List | Glossary On
Versions: 1 2 3 4 5 6 7 8 9 10 11 12 13 14 15 16 17 18 19 20 21 22 23 24 25 26 27 28 29 30 31 32 33 34 35 36 37 38 39 40 41 42 43 44 45 46 47 48 49 50
000
ASUS43 KOAX 280410
RWRNE

WEATHER ROUNDUP FOR NEBRASKA
NATIONAL WEATHER SERVICE OMAHA NE
1100 PM CDT MON APR 27 2015

NOTES: SATELLITE DATA IS BEING USED TO AUGMENT CLOUD COVER ABOVE
       12000 FEET.
       "FAIR" INDICATES FEW OR NO CLOUDS BELOW 12,000 FEET WITH NO
       SIGNIFICANT WEATHER AND/OR OBSTRUCTIONS TO VISIBILITY.

  * THESE STATIONS DO NOT REPORT WEATHER SUCH AS RAIN...SNOW OR FOG.

NEZ001>004-019>022-054>056-280500-
NEBRASKA PANHANDLE

CITY           SKY/WX    TMP DP  RH WIND       PRES   REMARKS
SCOTTSBLUFF    CLOUDY    48  41  76 NE12      30.33R
ALLIANCE       PTCLDY    44  40  85 N9        30.31R
CHADRON        CLOUDY    45  42  89 CALM      30.35R
KIMBALL        CLOUDY    46  41  82 N9        30.31R
SIDNEY         MOCLDY    47  42  83 N14       30.31R
$$

NEZ057>060-069>072-079>082-280500-
SOUTHWEST NEBRASKA

CITY           SKY/WX    TMP DP  RH WIND       PRES   REMARKS
NORTH PLATTE   MOCLDY    49  35  58 NE7       30.24R
IMPERIAL       PTCLDY    45  33  63 NW3       30.24R
LEXINGTON      CLEAR     46  33  61 NE7       30.22R
MCCOOK         CLEAR     49  35  58 NE5       30.22R
OGALLALA       MOCLDY    53  41  64 N13       30.26R
$$

NEZ005>010-023>029-035>040-094-280500-
NORTH CENTRAL NEBRASKA

CITY           SKY/WX    TMP DP  RH WIND       PRES   REMARKS
VALENTINE      CLOUDY    49  41  74 NW9       30.30R
AINSWORTH      CLEAR     51  42  71 N14       30.28R
BROKEN BOW     MOCLDY    47  32  56 N3        30.21S
O`NEILL        MOCLDY    53  33  46 W5        30.23R
ORD            MOCLDY    48  32  53 NW3       30.20R
THEDFORD       PTCLDY    53  42  67 N10G16    30.28R
$$

NEZ041-046>049-061>064-073>077-083>087-280500-
SOUTH CENTRAL NEBRASKA

CITY           SKY/WX    TMP DP  RH WIND       PRES   REMARKS
GRAND ISLAND   MOCLDY    46  36  68 NW3       30.20R
AURORA         MOCLDY    52  33  47 NE5       30.19R
HASTINGS       MOCLDY    49  37  63 N3        30.19R
HEBRON         FAIR      49  33  53 CALM      30.17R
HOLDREGE       PTCLDY    45  33  65 N6        30.21R
KEARNEY *      MOCLDY    50  34  53 NW7       30.21R
YORK           MOCLDY    48  36  61 MISG      30.19R
$$

NEZ011>018-030>034-042>045-280500-
NORTHEAST NEBRASKA

CITY           SKY/WX    TMP DP  RH WIND       PRES   REMARKS
NORFOLK        PTCLDY    50  29  44 W3        30.19R
ALBION         MOCLDY    46  32  57 NW6       30.20S
BLAIR          PTCLDY    58  29  32 NE3       30.17S
COLUMBUS *     PTCLDY    52  30  43 CALM      30.20S
FREMONT        PTCLDY    52  38  59 CALM      30.18R
TEKAMAH        FAIR      48  32  53 NW7       30.17R
WAYNE          FAIR      43  29  56 S3        30.20R
$$

NEZ050>053-065>068-078-088>093-280500-
SOUTHEAST NEBRASKA

CITY           SKY/WX    TMP DP  RH WIND       PRES   REMARKS
LINCOLN        MOCLDY    45  36  70 N6        30.18R
OMAHA EPPLEY   MOCLDY    49  41  74 NW8       30.17R
BEATRICE       MOCLDY    48  37  63 NE5       30.16R
FALLS CITY     PTCLDY    55  35  47 CALM      30.14R
NEBRASKA CITY  PTCLDY    54  27  35 CALM      30.16R
PLATTSMOUTH    PTCLDY    55  29  36 CALM      30.16S
$$

NEZ044-045-051>053-067-280500-
OMAHA AREA

CITY           SKY/WX    TMP DP  RH WIND       PRES   REMARKS
OMAHA EPPLEY   MOCLDY    49  41  74 NW8       30.17R
BLAIR          PTCLDY    58  29  32 NE3       30.17S
FREMONT        PTCLDY    52  38  59 CALM      30.18R
MILLARD        PTCLDY    53  37  54 CALM      30.17R
OFFUTT AFB     PTCLDY    46  39  77 N5        30.16R
PLATTSMOUTH    PTCLDY    55  29  36 CALM      30.16S
WAHOO          FAIR      53  31  44 N6        30.17S
$$



USA.gov is the U.S. government's official web portal to all federal, state and local government web resources and services.